EZY13DB LEMH-EGGD

Flight info

Callsign EZY13DB
Flight time 2h 29m
Altitude 36000
Route MEROS N853 LUMAS DCT SOFFY DCT MRM DCT MTL DCT ETREK DCT MADOT DCT MOPEM DCT CACHI DCT AVLON DCT OKRIX DCT BRY DCT CLM DCT KOPOR DCT KESAX DCT KUNAV T421 ICTAM
Aircraft A320/M-SDE2E3FGHIJ1RWXYZ/LB1

Departure

Time 2026-04-14 13:37
Airport Menorca Airport (LEMH)

Arrival

Time 2026-04-14 16:07
Airport Bristol Airport (EGGD)
Time Latitude Longitude Altitude Speed Heading
2026-04-14 12:58 39.86422 4.22396 300 ft 0 kts 98°
2026-04-14 13:28 39.86425 4.22373 299 ft 4 kts 96°
2026-04-14 13:28 39.86426 4.22339 299 ft 4 kts 82°
2026-04-14 13:28 39.86418 4.22310 298 ft 4 kts 28°
2026-04-14 13:28 39.86411 4.22306 297 ft 0 kts
2026-04-14 13:31 39.86412 4.22307 297 ft 1 kts
2026-04-14 13:31 39.86442 4.22312 298 ft 8 kts
2026-04-14 13:31 39.86516 4.22326 295 ft 14 kts
2026-04-14 13:31 39.86623 4.22345 295 ft 17 kts
2026-04-14 13:32 39.86741 4.22370 295 ft 18 kts
2026-04-14 13:32 39.86854 4.22395 298 ft 15 kts
2026-04-14 13:32 39.86920 4.22325 298 ft 14 kts 282°
2026-04-14 13:32 39.86946 4.22251 298 ft 0 kts 288°
2026-04-14 13:33 39.86943 4.22245 299 ft 1 kts 248°
2026-04-14 13:33 39.86904 4.22236 298 ft 13 kts 190°
2026-04-14 13:33 39.86756 4.22208 295 ft 28 kts 190°
2026-04-14 13:33 39.86560 4.22165 299 ft 29 kts 189°
2026-04-14 13:34 39.86152 4.22078 295 ft 30 kts 189°
2026-04-14 13:34 39.85948 4.22039 295 ft 30 kts 188°
2026-04-14 13:34 39.85744 4.21997 298 ft 30 kts 188°
2026-04-14 13:35 39.85530 4.21955 293 ft 32 kts 189°
2026-04-14 13:35 39.85302 4.21906 285 ft 35 kts 189°
2026-04-14 13:35 39.85100 4.21863 282 ft 20 kts 190°
2026-04-14 13:35 39.85075 4.21749 286 ft 15 kts 298°
2026-04-14 13:36 39.85141 4.21655 285 ft 13 kts 313°
2026-04-14 13:36 39.85185 4.21645 286 ft 0 kts
2026-04-14 13:36 39.85192 4.21647 287 ft 7 kts
2026-04-14 13:37 39.85501 4.21709 297 ft 81 kts
2026-04-14 13:37 39.86264 4.21862 300 ft 139 kts
2026-04-14 13:37 39.87249 4.22100 820 ft 146 kts
2026-04-14 13:37 39.88277 4.22368 1496 ft 154 kts
2026-04-14 13:38 39.89382 4.22655 1983 ft 172 kts
2026-04-14 13:38 39.90617 4.22941 2377 ft 190 kts
2026-04-14 13:38 39.92005 4.23217 2710 ft 214 kts
2026-04-14 13:38 39.93559 4.23502 3147 ft 236 kts
2026-04-14 13:39 39.95220 4.23814 3878 ft 245 kts
2026-04-14 13:39 39.96903 4.24144 4857 ft 245 kts
2026-04-14 13:39 39.98606 4.24486 5680 ft 250 kts
2026-04-14 13:39 40.00350 4.24844 6502 ft 255 kts
2026-04-14 13:40 40.02111 4.25220 7316 ft 257 kts
2026-04-14 13:40 40.03889 4.25635 8081 ft 262 kts
2026-04-14 13:40 40.05700 4.26072 8817 ft 268 kts 10°
2026-04-14 13:40 40.07552 4.26522 9549 ft 273 kts 10°
2026-04-14 13:41 40.09432 4.26976 10284 ft 278 kts 11°
2026-04-14 13:41 40.11407 4.27451 10516 ft 300 kts 11°
2026-04-14 13:41 40.13530 4.27958 10843 ft 317 kts 11°
2026-04-14 13:41 40.15716 4.28478 11521 ft 321 kts 11°
2026-04-14 13:42 40.17928 4.29002 12197 ft 325 kts 11°
2026-04-14 13:42 40.20169 4.29535 12887 ft 328 kts 11°
2026-04-14 13:42 40.22418 4.30068 13631 ft 330 kts 11°
2026-04-14 13:42 40.24689 4.30606 14226 ft 334 kts 12°
2026-04-14 13:43 40.26984 4.31152 14831 ft 336 kts 11°
2026-04-14 13:43 40.29283 4.31700 15491 ft 337 kts 12°
2026-04-14 13:43 40.31602 4.32254 16020 ft 342 kts 11°
2026-04-14 13:43 40.33949 4.32815 16639 ft 343 kts 12°
2026-04-14 13:44 40.36304 4.33377 17267 ft 345 kts 11°
2026-04-14 13:44 40.38678 4.33942 17808 ft 350 kts 11°
2026-04-14 13:44 40.41071 4.34511 18452 ft 349 kts 11°
2026-04-14 13:44 40.43460 4.35084 19010 ft 350 kts 11°
2026-04-14 13:45 40.45868 4.35663 19455 ft 354 kts 11°
2026-04-14 13:45 40.48295 4.36245 20015 ft 354 kts 11°
2026-04-14 13:45 40.50729 4.36827 20507 ft 357 kts 11°
2026-04-14 13:45 40.53191 4.37417 20927 ft 361 kts 11°
2026-04-14 13:46 40.55671 4.38009 21439 ft 362 kts 11°
2026-04-14 13:46 40.58162 4.38606 21877 ft 366 kts 11°
2026-04-14 13:46 40.60681 4.39212 22324 ft 369 kts 11°
2026-04-14 13:46 40.63205 4.39818 22828 ft 370 kts 11°
2026-04-14 13:47 40.65748 4.40423 23219 ft 374 kts 11°
2026-04-14 13:47 40.68312 4.41031 23684 ft 375 kts 11°
2026-04-14 13:47 40.70884 4.41643 24075 ft 377 kts 11°
2026-04-14 13:47 40.73477 4.42265 24399 ft 380 kts 11°
2026-04-14 13:48 40.76080 4.42894 24803 ft 381 kts 11°
2026-04-14 13:48 40.78698 4.43528 25120 ft 384 kts 11°
2026-04-14 13:48 40.81334 4.44167 25462 ft 386 kts 11°
2026-04-14 13:48 40.83976 4.44806 25836 ft 387 kts 10°
2026-04-14 13:49 40.86636 4.45449 26156 ft 390 kts 10°
2026-04-14 13:49 40.89302 4.46090 26579 ft 389 kts 10°
2026-04-14 13:49 40.91977 4.46729 26893 ft 392 kts 10°
2026-04-14 13:49 40.94673 4.47378 27178 ft 395 kts 10°
2026-04-14 13:50 40.97376 4.48032 27560 ft 396 kts 10°
2026-04-14 13:50 41.00096 4.48694 27805 ft 400 kts 10°
2026-04-14 13:50 41.02831 4.49361 28196 ft 400 kts 10°
2026-04-14 13:50 41.05574 4.50031 28504 ft 402 kts 10°
2026-04-14 13:51 41.08337 4.50706 28798 ft 404 kts 10°
2026-04-14 13:51 41.11099 4.51377 29199 ft 404 kts 10°
2026-04-14 13:51 41.13873 4.52049 29461 ft 407 kts 10°
2026-04-14 13:51 41.16663 4.52729 29794 ft 407 kts 10°
2026-04-14 13:52 41.19456 4.53411 30087 ft 410 kts 10°
2026-04-14 13:52 41.22271 4.54099 30302 ft 412 kts 10°
2026-04-14 13:52 41.25090 4.54790 30571 ft 413 kts 10°
2026-04-14 13:52 41.27920 4.55485 30779 ft 414 kts 10°
2026-04-14 13:53 41.30748 4.56179 31179 ft 411 kts 10°
2026-04-14 13:53 41.33554 4.56866 31540 ft 410 kts 10°
2026-04-14 13:53 41.36356 4.57548 31882 ft 408 kts 10°
2026-04-14 13:53 41.39142 4.58230 32233 ft 407 kts 10°
2026-04-14 13:54 41.41938 4.58914 32454 ft 409 kts 10°
2026-04-14 13:54 41.44730 4.59601 32804 ft 407 kts 10°
2026-04-14 13:54 41.47473 4.60277 33139 ft 406 kts 10°
2026-04-14 13:54 41.50248 4.60958 33481 ft 404 kts 10°
2026-04-14 13:55 41.53001 4.61638 33884 ft 402 kts 10°
2026-04-14 13:55 41.55748 4.62318 34173 ft 401 kts 10°
2026-04-14 13:55 41.58486 4.62997 34436 ft 400 kts 10°
2026-04-14 13:55 41.61223 4.63672 34655 ft 400 kts 10°
2026-04-14 13:56 41.63965 4.64344 34854 ft 401 kts 10°
2026-04-14 13:56 41.66706 4.65019 35083 ft 400 kts 10°
2026-04-14 13:56 41.69448 4.65695 35260 ft 401 kts 10°
2026-04-14 13:56 41.72186 4.66372 35512 ft 400 kts 10°
2026-04-14 13:57 41.74922 4.67270 35694 ft 400 kts 15°
2026-04-14 13:57 41.77559 4.68308 35871 ft 401 kts 15°
2026-04-14 13:57 41.80231 4.69362 36003 ft 401 kts 15°
2026-04-14 13:58 41.85554 4.71457 36031 ft 397 kts 15°
2026-04-14 13:58 41.90850 4.73532 36019 ft 396 kts 15°
2026-04-14 13:59 41.96146 4.75611 36016 ft 397 kts 15°
2026-04-14 13:59 42.01437 4.77696 36020 ft 397 kts 15°
2026-04-14 14:00 42.06735 4.79791 36017 ft 397 kts 15°
2026-04-14 14:00 42.12036 4.81891 36003 ft 397 kts 15°
2026-04-14 14:01 42.17339 4.83991 36008 ft 398 kts 15°
2026-04-14 14:01 42.22649 4.86096 36004 ft 398 kts 15°
2026-04-14 14:02 42.27961 4.88205 35998 ft 398 kts 15°
2026-04-14 14:02 42.33275 4.90320 35992 ft 398 kts 15°
2026-04-14 14:03 42.38587 4.92446 35991 ft 398 kts 15°
2026-04-14 14:03 42.43899 4.94569 35995 ft 398 kts 15°
2026-04-14 14:04 42.49213 4.96691 36004 ft 399 kts 15°
2026-04-14 14:04 42.54545 4.98826 35979 ft 401 kts 15°
2026-04-14 14:05 42.59902 5.00984 35974 ft 403 kts 15°
2026-04-14 14:05 42.65287 5.03157 35968 ft 404 kts 15°
2026-04-14 14:06 42.70689 5.05338 35968 ft 405 kts 15°
2026-04-14 14:06 42.76098 5.07512 35970 ft 405 kts 15°
2026-04-14 14:07 42.81507 5.09691 35970 ft 406 kts 15°
2026-04-14 14:07 42.86919 5.11883 35974 ft 406 kts 15°
2026-04-14 14:08 42.92328 5.14084 35970 ft 406 kts 15°
2026-04-14 14:08 42.97736 5.16292 35977 ft 405 kts 15°
2026-04-14 14:09 43.03139 5.18499 35961 ft 405 kts 15°
2026-04-14 14:09 43.08545 5.20702 35969 ft 405 kts 15°
2026-04-14 14:10 43.13951 5.22907 35974 ft 405 kts 15°
2026-04-14 14:10 43.19355 5.25107 35980 ft 405 kts 15°
2026-04-14 14:11 43.24759 5.27311 35977 ft 405 kts 15°
2026-04-14 14:11 43.29242 5.29146 35976 ft 405 kts 15°
2026-04-14 14:12 43.34655 5.31261 35976 ft 404 kts
2026-04-14 14:12 43.40236 5.31292 35975 ft 404 kts 350°
2026-04-14 14:13 43.45625 5.29046 35968 ft 405 kts 343°
2026-04-14 14:13 43.50975 5.26598 35966 ft 405 kts 343°
2026-04-14 14:14 43.56328 5.24153 35961 ft 406 kts 343°
2026-04-14 14:14 43.61687 5.21710 35962 ft 405 kts 343°
2026-04-14 14:15 43.67041 5.19265 35966 ft 405 kts 343°
2026-04-14 14:15 43.72401 5.16802 35970 ft 406 kts 343°
2026-04-14 14:16 43.77752 5.14339 35970 ft 405 kts 343°
2026-04-14 14:16 43.83100 5.11868 35992 ft 405 kts 343°
2026-04-14 14:17 43.91121 5.08155 36005 ft 405 kts 343°
2026-04-14 14:17 43.96465 5.05677 36005 ft 405 kts 343°
2026-04-14 14:18 44.01810 5.03200 36007 ft 405 kts 343°
2026-04-14 14:18 44.07143 5.00718 36029 ft 404 kts 343°
2026-04-14 14:19 44.12472 4.98227 36026 ft 404 kts 343°
2026-04-14 14:19 44.17795 4.95731 36035 ft 403 kts 343°
2026-04-14 14:20 44.23101 4.93251 36039 ft 401 kts 343°
2026-04-14 14:20 44.28381 4.90777 36048 ft 399 kts 343°
2026-04-14 14:21 44.33640 4.88312 36047 ft 398 kts 343°
2026-04-14 14:21 44.38878 4.85850 36065 ft 396 kts 343°
2026-04-14 14:22 44.44101 4.83377 36069 ft 396 kts 343°
2026-04-14 14:22 44.49317 4.80905 36061 ft 396 kts 343°
2026-04-14 14:23 44.54533 4.78448 36066 ft 395 kts 345°
2026-04-14 14:23 44.59909 4.77015 36076 ft 394 kts 352°
2026-04-14 14:24 44.65319 4.75825 36085 ft 394 kts 352°
2026-04-14 14:24 44.70693 4.74629 36098 ft 394 kts 352°
2026-04-14 14:25 44.76103 4.73419 36112 ft 394 kts 352°
2026-04-14 14:25 44.81517 4.72212 36117 ft 394 kts 352°
2026-04-14 14:26 44.86931 4.71011 36117 ft 394 kts 352°
2026-04-14 14:26 44.92348 4.69807 36122 ft 394 kts 352°
2026-04-14 14:27 44.97762 4.68601 36108 ft 394 kts 352°
2026-04-14 14:27 45.03182 4.67388 36122 ft 394 kts 352°
2026-04-14 14:28 45.08595 4.66171 36134 ft 394 kts 352°
2026-04-14 14:28 45.14008 4.64948 36143 ft 394 kts 352°
2026-04-14 14:29 45.19424 4.63726 36143 ft 394 kts 352°
2026-04-14 14:29 45.24839 4.62496 36140 ft 394 kts 352°
2026-04-14 14:30 45.30244 4.61259 36163 ft 393 kts 352°
2026-04-14 14:30 45.35627 4.60027 36178 ft 391 kts 352°
2026-04-14 14:31 45.40995 4.58793 36185 ft 390 kts 352°
2026-04-14 14:31 45.46353 4.57563 36182 ft 390 kts 352°
2026-04-14 14:32 45.51705 4.56338 36182 ft 389 kts 351°
2026-04-14 14:32 45.57052 4.55092 36184 ft 389 kts 351°
2026-04-14 14:33 45.62396 4.53854 36186 ft 389 kts 352°
2026-04-14 14:33 45.67686 4.52635 36184 ft 389 kts 351°
2026-04-14 14:34 45.75688 4.50777 36184 ft 388 kts 351°
2026-04-14 14:35 45.81026 4.49532 36183 ft 388 kts 351°
2026-04-14 14:35 45.86361 4.48291 36183 ft 388 kts 351°
2026-04-14 14:36 45.91693 4.47043 36185 ft 388 kts 351°
2026-04-14 14:36 45.97024 4.45799 36185 ft 388 kts 351°
2026-04-14 14:37 46.02351 4.44551 36182 ft 388 kts 351°
2026-04-14 14:37 46.07677 4.43301 36183 ft 388 kts 351°
2026-04-14 14:38 46.13004 4.42046 36186 ft 388 kts 351°
2026-04-14 14:38 46.18329 4.40787 36186 ft 388 kts 351°
2026-04-14 14:39 46.23654 4.39530 36183 ft 388 kts 351°
2026-04-14 14:39 46.28966 4.38255 36182 ft 386 kts 349°
2026-04-14 14:40 46.34201 4.36563 36190 ft 385 kts 347°
2026-04-14 14:40 46.39386 4.34633 36192 ft 384 kts 346°
2026-04-14 14:41 46.44568 4.32730 36202 ft 384 kts 347°
2026-04-14 14:41 46.49753 4.30894 36200 ft 383 kts 347°
2026-04-14 14:42 46.54905 4.29097 36194 ft 383 kts 347°
2026-04-14 14:42 46.60088 4.27281 36189 ft 383 kts 347°
2026-04-14 14:43 46.65267 4.25448 36186 ft 383 kts 347°
2026-04-14 14:43 46.70446 4.23609 36183 ft 383 kts 347°
2026-04-14 14:44 46.75626 4.21763 36185 ft 383 kts 347°
2026-04-14 14:44 46.80807 4.19922 36185 ft 383 kts 347°
2026-04-14 14:45 46.85983 4.18079 36185 ft 383 kts 347°
2026-04-14 14:45 46.91161 4.16234 36181 ft 383 kts 347°
2026-04-14 14:46 46.96334 4.14382 36185 ft 383 kts 347°
2026-04-14 14:46 47.01504 4.12528 36186 ft 383 kts 347°
2026-04-14 14:47 47.06666 4.10613 36186 ft 383 kts 342°
2026-04-14 14:47 47.11624 4.07747 36192 ft 383 kts 340°
2026-04-14 14:48 47.16557 4.04838 36196 ft 382 kts 340°
2026-04-14 14:48 47.21480 4.01927 36197 ft 381 kts 340°
2026-04-14 14:49 47.26393 3.99009 36197 ft 381 kts 340°
2026-04-14 14:49 47.31304 3.96097 36201 ft 380 kts 340°
2026-04-14 14:50 47.36208 3.93179 36209 ft 380 kts 340°
2026-04-14 14:50 47.41106 3.90255 36205 ft 380 kts 340°
2026-04-14 14:51 47.46000 3.87328 36203 ft 380 kts 340°
2026-04-14 14:51 47.50897 3.84398 36200 ft 379 kts 340°
2026-04-14 14:52 47.55759 3.81487 36199 ft 379 kts 340°
2026-04-14 14:52 47.60653 3.78550 36201 ft 379 kts 339°
2026-04-14 14:53 47.65542 3.75599 36187 ft 379 kts 339°
2026-04-14 14:53 47.70430 3.72649 36189 ft 379 kts 339°
2026-04-14 14:54 47.75317 3.69702 36197 ft 379 kts 339°
2026-04-14 14:54 47.80205 3.66750 36196 ft 379 kts 339°
2026-04-14 14:55 47.85088 3.63785 36197 ft 379 kts 339°
2026-04-14 14:55 47.89968 3.60812 36196 ft 379 kts 339°
2026-04-14 14:56 47.97287 3.56338 36202 ft 379 kts 339°
2026-04-14 14:56 48.01342 3.53854 36202 ft 379 kts 339°
2026-04-14 14:57 48.06222 3.50857 36200 ft 379 kts 339°
2026-04-14 14:57 48.11095 3.47856 36198 ft 379 kts 339°
2026-04-14 14:58 48.15970 3.44852 36199 ft 379 kts 339°
2026-04-14 14:58 48.20840 3.41838 36177 ft 379 kts 339°
2026-04-14 14:59 48.25694 3.38823 36207 ft 377 kts 339°
2026-04-14 14:59 48.30527 3.35823 36214 ft 375 kts 339°
2026-04-14 15:00 48.35341 3.32827 36213 ft 374 kts 339°
2026-04-14 15:00 48.40141 3.29824 36219 ft 373 kts 338°
2026-04-14 15:01 48.44933 3.26814 36207 ft 373 kts 338°
2026-04-14 15:01 48.49710 3.23761 36203 ft 373 kts 338°
2026-04-14 15:02 48.54479 3.20694 36204 ft 372 kts 338°
2026-04-14 15:02 48.59244 3.17629 36196 ft 372 kts 338°
2026-04-14 15:03 48.64010 3.14576 36200 ft 372 kts 338°
2026-04-14 15:03 48.68778 3.11521 36194 ft 372 kts 338°
2026-04-14 15:04 48.73538 3.08463 36193 ft 372 kts 338°
2026-04-14 15:04 48.78296 3.05391 36175 ft 372 kts 338°
2026-04-14 15:05 48.83040 3.02318 36187 ft 370 kts 338°
2026-04-14 15:05 48.87566 2.98684 36198 ft 369 kts 332°
2026-04-14 15:06 48.92013 2.94795 36199 ft 368 kts 332°
2026-04-14 15:06 48.96456 2.90913 36193 ft 368 kts 332°
2026-04-14 15:07 49.00891 2.87032 36192 ft 367 kts 332°
2026-04-14 15:07 49.05316 2.83140 36201 ft 367 kts 332°
2026-04-14 15:08 49.09738 2.79240 36197 ft 367 kts 332°
2026-04-14 15:08 49.14163 2.75349 36192 ft 367 kts 332°
2026-04-14 15:09 49.18580 2.71444 36190 ft 367 kts 332°
2026-04-14 15:09 49.22991 2.67527 36186 ft 367 kts 332°
2026-04-14 15:10 49.27399 2.63610 36174 ft 366 kts 332°
2026-04-14 15:10 49.31789 2.59708 36193 ft 364 kts 331°
2026-04-14 15:11 49.36166 2.55814 36197 ft 363 kts 331°
2026-04-14 15:11 49.40529 2.51908 36196 ft 363 kts 331°
2026-04-14 15:12 49.44888 2.48007 36193 ft 362 kts 331°
2026-04-14 15:12 49.49244 2.44099 36191 ft 362 kts 331°
2026-04-14 15:13 49.53351 2.39604 36198 ft 365 kts 322°
2026-04-14 15:13 49.57195 2.34500 36192 ft 365 kts 322°
2026-04-14 15:14 49.61036 2.29398 36189 ft 365 kts 322°
2026-04-14 15:14 49.64885 2.24296 36149 ft 365 kts 322°
2026-04-14 15:15 49.68734 2.19166 36155 ft 366 kts 321°
2026-04-14 15:15 49.72583 2.14000 36159 ft 367 kts 321°
2026-04-14 15:16 49.76419 2.08867 36170 ft 367 kts 321°
2026-04-14 15:16 49.80286 2.03692 36169 ft 367 kts 321°
2026-04-14 15:17 49.84145 1.98504 36167 ft 367 kts 321°
2026-04-14 15:17 49.88001 1.93302 36169 ft 367 kts 321°
2026-04-14 15:18 49.91854 1.88091 36172 ft 368 kts 321°
2026-04-14 15:18 49.95710 1.82867 36185 ft 368 kts 321°
2026-04-14 15:19 49.99565 1.77649 36161 ft 368 kts 320°
2026-04-14 15:19 50.03419 1.72399 36164 ft 368 kts 320°
2026-04-14 15:20 50.07272 1.67143 36166 ft 369 kts 320°
2026-04-14 15:20 50.11142 1.61893 36161 ft 369 kts 320°
2026-04-14 15:21 50.15012 1.56646 36164 ft 369 kts 320°
2026-04-14 15:21 50.18882 1.51390 36174 ft 369 kts 320°
2026-04-14 15:22 50.22748 1.46125 36170 ft 369 kts 320°
2026-04-14 15:22 50.26613 1.40853 36170 ft 369 kts 320°
2026-04-14 15:23 50.30472 1.35564 36147 ft 369 kts 319°
2026-04-14 15:23 50.34329 1.30262 36153 ft 369 kts 319°
2026-04-14 15:24 50.38185 1.24953 36155 ft 369 kts 319°
2026-04-14 15:24 50.42046 1.19640 36168 ft 369 kts 319°
2026-04-14 15:25 50.45904 1.14320 36167 ft 369 kts 319°
2026-04-14 15:25 50.49755 1.08976 36160 ft 369 kts 319°
2026-04-14 15:26 50.53653 1.03718 36162 ft 369 kts 321°
2026-04-14 15:26 50.57702 0.98750 36162 ft 369 kts 322°
2026-04-14 15:27 50.61771 0.93826 36162 ft 369 kts 322°
2026-04-14 15:27 50.65795 0.88868 36157 ft 370 kts 321°
2026-04-14 15:28 50.69859 0.83801 36154 ft 370 kts 321°
2026-04-14 15:28 50.73896 0.78741 36154 ft 371 kts 321°
2026-04-14 15:29 50.77907 0.73715 36153 ft 371 kts 321°
2026-04-14 15:29 50.81949 0.68647 36155 ft 371 kts 321°
2026-04-14 15:30 50.85998 0.63579 36144 ft 371 kts 321°
2026-04-14 15:30 50.90038 0.58487 36115 ft 371 kts 320°
2026-04-14 15:31 50.94072 0.53379 36072 ft 371 kts 320°
2026-04-14 15:31 50.98106 0.48263 36033 ft 371 kts 320°
2026-04-14 15:32 51.02143 0.43144 35983 ft 372 kts 320°
2026-04-14 15:32 51.06187 0.38016 35954 ft 372 kts 320°
2026-04-14 15:33 51.10230 0.32869 35939 ft 372 kts 320°
2026-04-14 15:33 51.14272 0.27711 35940 ft 372 kts 320°
2026-04-14 15:34 51.18313 0.22538 35961 ft 372 kts 320°
2026-04-14 15:34 51.22346 0.17356 35989 ft 372 kts 319°
2026-04-14 15:35 51.26378 0.12160 36022 ft 372 kts 320°
2026-04-14 15:35 51.30390 0.06926 36061 ft 372 kts 316°
2026-04-14 15:36 51.33424 0.00281 35986 ft 375 kts 296°
2026-04-14 15:36 51.34313 -0.03643 35724 ft 376 kts 288°
2026-04-14 15:36 51.34936 -0.07696 35470 ft 374 kts 287°
2026-04-14 15:37 51.35581 -0.11719 35210 ft 372 kts 287°
2026-04-14 15:37 51.36258 -0.15693 34748 ft 369 kts 288°
2026-04-14 15:37 51.36944 -0.19647 34213 ft 368 kts 288°
2026-04-14 15:37 51.37625 -0.23588 33654 ft 366 kts 288°
2026-04-14 15:38 51.38293 -0.27505 33142 ft 363 kts 288°
2026-04-14 15:38 51.38947 -0.31395 32638 ft 361 kts 288°
2026-04-14 15:38 51.39591 -0.35265 32142 ft 358 kts 287°
2026-04-14 15:38 51.40225 -0.39105 31650 ft 356 kts 288°
2026-04-14 15:39 51.40856 -0.42924 31166 ft 354 kts 288°
2026-04-14 15:39 51.41482 -0.46716 30695 ft 351 kts 288°
2026-04-14 15:39 51.42104 -0.50490 30233 ft 349 kts 288°
2026-04-14 15:39 51.42718 -0.54234 29736 ft 346 kts 288°
2026-04-14 15:40 51.43129 -0.56747 29432 ft 343 kts 287°
2026-04-14 15:40 51.43731 -0.60429 28997 ft 339 kts 287°
2026-04-14 15:40 51.44323 -0.64058 28580 ft 335 kts 287°
2026-04-14 15:40 51.44907 -0.67650 28166 ft 331 kts 287°
2026-04-14 15:41 51.45482 -0.71201 27755 ft 328 kts 287°
2026-04-14 15:41 51.46052 -0.74721 27345 ft 324 kts 287°
2026-04-14 15:41 51.46617 -0.78206 26930 ft 322 kts 287°
2026-04-14 15:41 51.47177 -0.81665 26514 ft 319 kts 287°
2026-04-14 15:42 51.47730 -0.85102 26103 ft 317 kts 286°
2026-04-14 15:42 51.48278 -0.88515 25682 ft 316 kts 286°
2026-04-14 15:42 51.48823 -0.91918 25261 ft 314 kts 286°
2026-04-14 15:42 51.49366 -0.95309 24809 ft 313 kts 286°
2026-04-14 15:43 51.49908 -0.98697 24372 ft 313 kts 285°
2026-04-14 15:43 51.50450 -1.02083 23935 ft 313 kts 285°
2026-04-14 15:43 51.50990 -1.05469 23467 ft 313 kts 284°
2026-04-14 15:43 51.51527 -1.08855 23005 ft 312 kts 284°
2026-04-14 15:44 51.52053 -1.12187 22582 ft 311 kts 284°
2026-04-14 15:44 51.52585 -1.15543 22162 ft 310 kts 284°
2026-04-14 15:44 51.53077 -1.18921 21781 ft 314 kts 282°
2026-04-14 15:44 51.53509 -1.22393 21415 ft 319 kts 281°
2026-04-14 15:45 51.53920 -1.25944 21036 ft 319 kts 281°
2026-04-14 15:45 51.54314 -1.29443 20664 ft 318 kts 281°
2026-04-14 15:45 51.54702 -1.32881 20299 ft 317 kts 281°
2026-04-14 15:45 51.55097 -1.36356 19919 ft 315 kts 281°
2026-04-14 15:46 51.55495 -1.39813 19561 ft 314 kts 281°
2026-04-14 15:46 51.55897 -1.43260 19200 ft 314 kts 281°
2026-04-14 15:46 51.56301 -1.46694 18828 ft 312 kts 281°
2026-04-14 15:46 51.56701 -1.50112 18472 ft 310 kts 281°
2026-04-14 15:47 51.57095 -1.53515 18066 ft 309 kts 281°
2026-04-14 15:47 51.57482 -1.56896 17698 ft 306 kts 280°
2026-04-14 15:47 51.57866 -1.60253 17331 ft 304 kts 280°
2026-04-14 15:47 51.58250 -1.63590 16973 ft 303 kts 280°
2026-04-14 15:48 51.58613 -1.66915 16615 ft 302 kts 278°
2026-04-14 15:48 51.58895 -1.70250 16261 ft 301 kts 277°
2026-04-14 15:48 51.59132 -1.73582 15907 ft 300 kts 276°
2026-04-14 15:48 51.59353 -1.76908 15555 ft 298 kts 276°
2026-04-14 15:49 51.59574 -1.80217 15202 ft 297 kts 276°
2026-04-14 15:49 51.59799 -1.83520 14852 ft 297 kts 276°
2026-04-14 15:49 51.59933 -1.86821 14503 ft 295 kts 266°
2026-04-14 15:49 51.59585 -1.90064 14174 ft 295 kts 252°
2026-04-14 15:50 51.58733 -1.93054 13835 ft 295 kts 237°
2026-04-14 15:50 51.57621 -1.95820 13484 ft 294 kts 237°
2026-04-14 15:50 51.56525 -1.98565 13197 ft 290 kts 237°
2026-04-14 15:50 51.55435 -2.01298 12765 ft 290 kts 237°
2026-04-14 15:51 51.54349 -2.04013 12414 ft 288 kts 237°
2026-04-14 15:51 51.53268 -2.06713 12076 ft 286 kts 238°
2026-04-14 15:51 51.52379 -2.09540 11742 ft 283 kts 250°
2026-04-14 15:51 51.51720 -2.12507 11392 ft 281 kts 250°
2026-04-14 15:52 51.51061 -2.15451 11053 ft 279 kts 250°
2026-04-14 15:52 51.50404 -2.18367 10732 ft 277 kts 250°
2026-04-14 15:52 51.49749 -2.21261 10407 ft 275 kts 249°
2026-04-14 15:52 51.49093 -2.24136 10073 ft 274 kts 249°
2026-04-14 15:53 51.48441 -2.26994 9736 ft 272 kts 249°
2026-04-14 15:53 51.47794 -2.29830 9398 ft 269 kts 249°
2026-04-14 15:53 51.47153 -2.32635 9080 ft 267 kts 249°
2026-04-14 15:53 51.46515 -2.35424 8765 ft 265 kts 248°
2026-04-14 15:54 51.45249 -2.40957 8127 ft 262 kts 248°
2026-04-14 15:54 51.44620 -2.43686 7820 ft 260 kts 248°
2026-04-14 15:54 51.43997 -2.46392 7510 ft 258 kts 248°
2026-04-14 15:55 51.43378 -2.49087 7199 ft 257 kts 247°
2026-04-14 15:55 51.42763 -2.51764 6895 ft 255 kts 247°
2026-04-14 15:55 51.42158 -2.54407 6717 ft 247 kts 246°
2026-04-14 15:55 51.41586 -2.56916 6626 ft 233 kts 246°
2026-04-14 15:56 51.41044 -2.59289 6530 ft 221 kts 246°
2026-04-14 15:56 51.40521 -2.61557 6437 ft 215 kts 245°
2026-04-14 15:56 51.40020 -2.63801 6331 ft 215 kts 251°
2026-04-14 15:56 51.39955 -2.66220 6222 ft 220 kts 267°
2026-04-14 15:57 51.40059 -2.68667 6128 ft 221 kts 270°
2026-04-14 15:57 51.40212 -2.71110 6024 ft 220 kts 270°
2026-04-14 15:57 51.40368 -2.73515 5930 ft 213 kts 270°
2026-04-14 15:57 51.40525 -2.75793 5815 ft 204 kts 270°
2026-04-14 15:58 51.40682 -2.78026 5704 ft 197 kts 270°
2026-04-14 15:58 51.40839 -2.80196 5601 ft 196 kts 270°
2026-04-14 15:58 51.40992 -2.82356 5503 ft 195 kts 270°
2026-04-14 15:58 51.41145 -2.84518 5359 ft 197 kts 270°
2026-04-14 15:59 51.41301 -2.86715 4952 ft 199 kts 270°
2026-04-14 15:59 51.41442 -2.88889 4552 ft 199 kts 271°
2026-04-14 15:59 51.41564 -2.91131 4134 ft 200 kts 270°
2026-04-14 15:59 51.41685 -2.93326 3731 ft 201 kts 270°
2026-04-14 16:00 51.41817 -2.95551 3325 ft 201 kts 270°
2026-04-14 16:00 51.41950 -2.97772 2911 ft 200 kts 270°
2026-04-14 16:00 51.42083 -2.99961 2672 ft 194 kts 270°
2026-04-14 16:00 51.42216 -3.02107 2585 ft 193 kts 270°
2026-04-14 16:01 51.42175 -3.04193 2512 ft 182 kts 243°
2026-04-14 16:01 51.41399 -3.05678 2512 ft 176 kts 205°
2026-04-14 16:01 51.40212 -3.05915 2509 ft 178 kts 168°
2026-04-14 16:01 51.39050 -3.05175 2512 ft 181 kts 158°
2026-04-14 16:02 51.37925 -3.04244 2510 ft 182 kts 156°
2026-04-14 16:02 51.36829 -3.03215 2510 ft 185 kts 143°
2026-04-14 16:02 51.36121 -3.01494 2527 ft 187 kts 110°
2026-04-14 16:02 51.36154 -2.99459 2518 ft 190 kts 74°
2026-04-14 16:03 51.36766 -2.97539 2515 ft 195 kts 69°
2026-04-14 16:03 51.37268 -2.95535 2504 ft 192 kts 82°
2026-04-14 16:03 51.37412 -2.93455 2511 ft 188 kts 92°
2026-04-14 16:03 51.37492 -2.91375 2507 ft 187 kts 92°
2026-04-14 16:04 51.37575 -2.89314 2491 ft 181 kts 92°
2026-04-14 16:04 51.37655 -2.87353 2349 ft 172 kts 93°
2026-04-14 16:04 51.37730 -2.85490 2140 ft 165 kts 94°
2026-04-14 16:04 51.37802 -2.83698 1932 ft 158 kts 95°
2026-04-14 16:05 51.37871 -2.81972 1730 ft 154 kts 95°
2026-04-14 16:05 51.37938 -2.80285 1538 ft 148 kts 95°
2026-04-14 16:05 51.38003 -2.78666 1318 ft 144 kts 97°
2026-04-14 16:05 51.38065 -2.77087 1110 ft 139 kts 95°
2026-04-14 16:06 51.38125 -2.75573 941 ft 138 kts 94°
2026-04-14 16:06 51.38183 -2.74041 732 ft 139 kts 90°
2026-04-14 16:06 51.38248 -2.72537 637 ft 127 kts 85°
2026-04-14 16:06 51.38289 -2.71336 604 ft 75 kts 86°
2026-04-14 16:07 51.38308 -2.70922 617 ft 27 kts 85°
2026-04-14 16:07 51.38346 -2.70764 612 ft 12 kts 28°
2026-04-14 16:07 51.38408 -2.70725 622 ft 7 kts 20°
2026-04-14 16:07 51.38449 -2.70708 617 ft 5 kts 359°
2026-04-14 16:08 51.38469 -2.70744 618 ft 6 kts 290°
2026-04-14 16:08 51.38469 -2.70825 620 ft 8 kts 267°
2026-04-14 16:08 51.38465 -2.70918 614 ft 11 kts 266°
2026-04-14 16:08 51.38460 -2.71070 615 ft 17 kts 267°
2026-04-14 16:09 51.38454 -2.71252 616 ft 16 kts 267°
2026-04-14 16:09 51.38447 -2.71415 613 ft 16 kts 265°
2026-04-14 16:09 51.38444 -2.71508 615 ft 7 kts 266°
2026-04-14 16:09 51.38477 -2.71542 610 ft 9 kts
2026-04-14 16:10 51.38533 -2.71544 612 ft 3 kts 356°
2026-04-14 16:10 51.38543 -2.71545 616 ft 0 kts 356°